Dewpoint
26 20 22 18 22 24 24 24 26 25 24 25 24 22 22 21 19 18 20 24 26 22 21 21 21 20 18 17 18 20 20 20 21 21 21 21 21 21 21 21 22 22 22 24 23 22 22 21 20 21 20 20 19 20 20 20 21 22 23 24 24 25 26 28 30 31 30 30 30 29 27 30 27 27 27 24 26 26 25 27 27 27 26 27 27 28
23 14 20 23 25 25 25 25 25 26 26 26 25 22 16 15 10 12 16 22 25 20 20 22 20 17 18 17 18 19 19 19 20 20 21 21 21 21 21 21 21 21 22 21 20 20 20 20 20 20 19 22 18 19 19 19 19 20 22 23 23 24 25 26 29 31 30 30 30 28 28 26 26 25 26 27 25 25 26 27 27 27 26 26 26 26
16 18 21 25 26 25 23 23 25 25 25 22 16 15 12 10 15 17 20 24 25 22 19 21 19 18 18 16 18 18 19 20 21 21 21 21 21 21 21 21 21 20 20 19 19 20 20 20 20 19 19 17 18 19 18 18 19 19 21 23 24 25 26 26 28 30 30 30 31 28 27 25 24 23 24 25 28 28 27 25 26 26 26 26 26 26
9 16 23 25 25 25 22 22 21 19 20 18 16 15 12 14 14 12 14 22 22 19 19 21 19 18 15 16 18 19 19 20 21 21 22 22 21 20 20 21 21 20 21 19 19 18 19 19 19 19 19 18 19 18 18 18 18 18 22 22 24 25 25 27 27 31 31 31 32 31 29 28 22 22 26 25 22 24 24 25 25 25 25 26 25 25
12 19 25 21 19 18 17 20 22 19 16 17 16 10 13 14 16 14 16 20 21 21 23 19 12 9 12 9 14 17 20 19 20 20 20 20 22 22 21 20 21 20 20 20 18 18 18 18 19 18 20 19 18 18 18 18 18 17 19 21 23 25 25 26 28 28 30 31 29 30 30 30 30 28 26 26 26 22 22 25 23 23 25 25 25 25
18 23 27 20 17 17 16 18 21 19 17 17 16 13 14 15 19 19 20 20 9 12 18 14 3 5 7 11 14 17 18 18 19 19 19 19 19 20 19 19 19 19 20 19 18 18 18 18 19 18 18 18 18 17 19 18 18 18 19 20 22 23 25 25 26 28 29 29 28 29 28 27 28 27 27 27 27 28 27 26 25 24 23 24 25 25
17 22 20 18 17 15 15 16 20 20 18 10 12 15 17 20 20 19 19 7 2 -4 6 13 -0 1 10 7 14 17 18 18 18 18 18 18 18 18 18 18 18 18 18 18 17 18 16 17 18 17 18 19 18 18 20 18 19 18 18 19 20 22 23 24 24 27 29 28 27 28 29 29 29 28 28 27 28 28 28 29 26 27 25 25 23 23
22 19 24 22 16 16 13 16 17 20 14 8 10 21 20 18 17 16 18 8 7 15 14 16 3 1 1 6 14 17 17 17 17 18 18 17 18 17 17 18 18 18 17 17 17 16 16 17 17 17 18 18 19 20 21 20 19 17 17 18 20 21 22 23 24 26 28 28 28 29 28 29 29 28 27 27 28 29 30 30 29 29 28 26 22 22
18 22 23 23 15 11 10 16 18 22 16 14 17 21 19 19 19 19 19 17 18 4 4 0 12 -3 -4 7 13 16 15 15 16 17 17 18 18 17 16 18 17 18 17 16 16 16 15 16 18 19 18 20 24 26 24 22 18 16 16 18 19 20 19 20 21 24 24 28 28 29 28 28 28 28 29 29 30 30 30 29 28 28 28 26 24 22
19 22 22 24 14 13 15 21 22 23 14 19 21 17 19 19 19 19 16 16 8 1 -5 -5 7 -4 -1 -0 11 16 15 15 16 17 18 18 18 17 15 17 16 17 17 16 16 15 15 16 17 18 18 16 20 26 25 20 16 14 15 17 19 19 19 19 19 20 22 24 26 26 26 27 27 27 28 29 28 29 29 28 29 28 28 27 25 23
14 29 27 25 18 19 23 25 23 23 21 24 17 9 6 7 12 14 8 2 -1 -17 -5 -9 3 3 -1 5 13 14 14 14 16 17 17 17 15 16 16 15 17 15 16 14 15 15 14 15 17 17 16 14 18 24 23 19 13 14 15 17 18 18 18 18 18 19 20 22 23 24 25 25 25 26 27 28 27 27 27 27 28 28 29 29 27 26
21 20 21 25 30 26 25 14 22 23 24 17 12 8 -2 -2 3 6 6 3 -11 -10 -6 -3 10 10 -1 4 15 16 16 14 17 15 17 16 14 14 16 15 17 15 16 14 14 13 13 13 15 17 15 13 16 24 21 16 15 16 16 17 17 18 18 17 18 18 19 20 22 23 23 23 23 24 25 26 27 27 27 27 27 28 29 28 28 26
10 3 9 15 29 20 18 6 12 17 18 16 11 6 -0 -5 -1 -6 0 -3 -13 -10 -2 3 8 4 7 6 16 17 17 17 16 20 17 17 15 14 17 15 17 16 15 12 12 11 11 10 13 17 15 11 13 22 19 15 16 15 15 15 17 17 17 17 17 17 17 19 20 22 22 22 23 24 25 25 26 26 27 27 27 28 28 28 28 28
7 10 6 10 9 17 11 7 9 9 13 15 11 6 3 -3 -9 -13 -6 -9 -7 -3 -1 0 5 5 8 14 16 16 17 18 18 18 18 18 16 14 16 15 16 15 12 11 10 9 9 10 12 16 13 10 12 19 18 15 16 15 15 15 16 16 17 17 17 17 17 19 20 20 21 21 22 23 24 25 25 25 26 27 28 28 28 28 28 28
2 2 4 8 3 15 17 12 13 13 17 16 14 5 0 1 -5 -8 -10 -8 -3 0 3 6 0 -2 0 7 17 17 19 19 15 19 18 18 17 16 15 14 11 10 9 9 9 9 8 9 12 15 12 11 12 17 17 15 15 15 14 14 15 15 16 16 16 17 17 18 19 19 20 21 21 22 23 24 25 25 25 25 26 27 28 28 28 28
1 -4 4 9 8 19 14 21 21 18 17 18 17 14 9 3 8 -1 2 -3 -1 6 6 2 0 4 6 16 22 19 17 17 20 17 17 16 16 13 11 10 8 8 8 7 6 6 6 8 12 13 12 11 11 15 16 15 15 15 14 14 14 15 16 16 17 16 17 18 18 19 20 20 21 23 23 24 24 24 24 24 24 25 26 27 28 28
6 -10 0 10 19 20 17 23 16 15 -2 3 3 1 6 14 12 4 9 8 5 -0 4 -2 6 5 14 18 18 18 18 17 15 15 16 14 12 10 8 7 5 4 6 5 6 7 7 8 12 13 12 12 12 15 16 15 14 13 13 13 14 15 16 16 16 16 16 18 18 19 19 20 21 21 22 22 22 23 23 24 24 25 25 26 27 28
0 2 12 2 -0 8 21 21 20 22 11 10 3 9 13 16 14 8 1 -2 -1 -2 1 0 4 5 4 3 16 16 15 16 15 14 14 13 11 8 6 3 3 3 3 5 6 7 8 10 12 12 13 12 12 16 15 14 13 14 14 14 14 15 16 16 15 16 16 17 18 19 20 20 21 21 21 22 22 22 23 23 23 24 25 25 26 28
11 1 5 7 7 8 5 17 4 17 18 16 12 14 8 1 4 6 -3 -3 -4 -3 0 3 5 6 3 9 15 16 15 14 14 14 13 12 9 4 1 1 2 2 5 5 6 7 9 10 11 12 12 12 14 17 14 14 13 14 13 14 14 15 16 16 16 16 17 18 19 21 20 20 20 21 22 22 22 23 23 23 23 23 24 25 26 26
9 -2 4 5 7 6 -2 4 -3 1 8 15 16 11 14 7 2 2 2 0 -1 2 -0 2 5 4 10 12 13 15 15 12 13 12 12 9 3 0 1 1 1 2 4 5 6 7 8 10 10 12 12 13 16 14 14 13 14 13 13 14 15 16 16 16 16 16 16 17 19 19 19 20 21 21 21 22 22 21 22 23 23 23 24 25 26 26
10 1 -7 -0 6 -4 -3 -1 -1 1 2 9 10 6 9 -1 9 8 2 2 2 -3 -3 5 4 6 16 17 16 16 13 10 10 13 9 2 -0 0 0 0 1 2 4 5 7 8 9 10 11 12 12 16 15 14 14 13 13 13 14 14 15 16 16 16 16 16 17 18 19 19 19 19 19 20 21 21 22 22 22 22 23 23 24 25 25 26
4 7 -0 6 3 -4 -5 1 4 7 8 9 10 8 12 5 9 5 6 -1 -2 2 6 3 3 7 17 18 16 16 10 8 12 10 1 -0 -0 0 0 1 2 4 5 6 7 8 9 11 12 12 14 16 14 13 12 13 13 14 14 15 16 17 17 16 17 17 17 18 19 19 19 19 19 20 20 21 21 21 22 21 22 23 23 24 24 25
15 11 8 5 2 -2 -1 10 19 12 14 14 14 13 8 3 -2 2 3 7 5 4 5 9 7 5 18 20 19 12 9 8 8 3 -0 1 0 1 2 2 3 5 6 7 8 9 10 11 11 13 15 14 12 13 12 13 14 15 15 16 17 17 17 17 17 17 18 19 19 19 19 19 19 20 20 21 21 21 21 21 21 22 22 22 23 24
25 1 -1 -1 0 1 4 15 16 15 12 12 14 13 11 7 3 4 8 5 6 4 2 6 3 3 13 19 15 8 6 7 3 2 2 3 2 1 2 3 4 5 7 7 9 11 11 11 12 16 14 13 13 13 13 14 15 16 17 18 18 18 17 17 17 18 19 19 19 19 19 19 19 20 20 20 21 20 21 21 21 22 22 22 22 23
-2 4 -0 -7 -3 -4 -8 3 6 13 12 13 11 11 8 5 3 3 1 -2 2 2 4 6 1 3 9 9 8 6 3 3 1 -0 1 1 1 2 2 4 5 7 8 8 9 10 10 11 15 15 13 13 13 14 15 16 17 18 19 19 18 18 18 18 18 19 20 20 19 19 19 19 19 19 20 20 20 20 21 21 21 21 21 21 21 22
6 7 1 -8 -9 -7 -8 -6 -1 4 10 13 12 9 8 4 5 4 -0 2 3 6 7 5 4 4 7 7 5 1 1 1 0 0 1 2 2 3 4 5 6 8 9 9 9 10 11 16 15 13 13 13 14 15 18 20 20 19 19 19 19 19 19 19 20 20 21 20 20 19 19 19 19 19 19 20 20 21 21 21 21 21 21 22 21 22
6 10 3 4 -4 -2 4 4 5 16 11 9 6 8 8 5 1 3 4 5 5 8 7 8 9 6 5 4 1 -2 2 0 -0 1 1 2 3 5 6 7 7 9 9 9 10 11 16 14 13 13 14 14 16 18 21 20 20 19 20 20 19 19 20 20 21 21 21 20 19 19 18 18 18 19 20 20 20 21 21 21 22 22 22 22 22 22
-1 1 7 4 5 8 7 7 9 14 12 12 7 8 7 7 4 4 6 7 11 9 3 6 6 5 3 -0 -4 -0 1 1 1 2 2 3 4 5 6 8 14 9 9 10 12 15 13 13 13 14 14 16 19 19 19 19 19 19 20 20 20 20 20 22 21 21 20 20 19 18 18 18 19 19 20 20 21 21 21 22 22 22 21 22 22 23
2 -2 1 5 5 8 11 12 13 13 12 12 10 10 8 8 5 5 7 10 10 9 5 5 4 1 -2 -4 -2 1 1 1 2 3 4 4 6 7 8 8 8 9 9 11 14 13 12 13 14 14 16 19 18 17 18 18 19 20 21 20 20 20 20 21 21 20 20 19 18 18 19 19 20 21 21 22 22 21 21 22 21 21 21 21 22 23
4 -0 3 6 10 11 12 12 12 11 11 9 7 11 12 10 11 12 10 10 10 7 4 2 -1 -4 -4 -4 1 2 3 3 3 4 5 5 6 8 8 8 8 9 11 13 12 13 13 14 14 16 19 18 16 16 18 18 19 20 19 19 19 19 20 21 21 20 19 19 19 19 20 20 20 21 21 21 21 22 22 21 20 20 21 21 22 22
6 9 11 3 7 8 8 10 8 11 9 9 12 12 12 12 11 9 9 7 6 1 -1 -3 -4 -5 -5 1 2 3 4 4 4 5 5 6 7 8 8 9 9 10 12 12 13 13 13 14 16 18 17 14 14 17 19 19 19 19 17 17 17 18 20 21 21 20 19 19 19 19 20 21 21 22 22 22 22 22 21 20 20 20 21 22 23 24
11 11 -1 -2 7 4 7 10 10 8 9 7 9 11 13 11 8 6 5 4 1 -1 -3 -3 -5 -5 -1 2 3 4 4 4 4 5 6 7 8 8 8 9 9 10 10 11 12 12 13 16 17 15 14 14 16 18 20 20 19 17 15 15 18 19 19 20 21 21 20 20 19 20 21 22 22 23 23 23 22 22 21 21 21 22 22 22 23 23
2 8 10 3 8 1 5 10 7 5 4 -7 -3 11 13 10 5 2 1 0 -4 -5 -3 -7 -6 -2 1 5 3 4 4 5 5 6 7 8 8 9 9 9 9 10 12 13 12 13 16 17 16 14 14 16 17 17 17 16 16 14 13 17 20 19 18 20 21 21 21 20 20 20 22 23 23 23 23 23 22 22 22 22 23 23 23 23 23 23
5 8 7 4 6 6 9 7 5 -3 -11 -9 14 16 13 7 2 -0 -3 -5 -7 -7 -6 -6 -2 1 2 3 4 4 5 5 6 7 9 8 9 9 7 8 10 11 11 12 14 17 17 14 14 15 16 14 12 13 14 15 13 14 18 18 17 18 19 19 19 20 21 20 20 21 22 23 23 23 23 23 22 22 23 23 24 24 24 24 23 24
8 7 7 0 6 6 5 5 -5 -11 -14 1 16 17 14 8 2 -1 -5 -6 -7 -7 -6 -0 0 1 3 4 5 6 6 7 8 8 8 9 9 8 8 9 10 11 12 14 16 17 15 14 15 13 9 8 10 11 12 12 14 16 14 13 14 16 17 17 18 21 21 19 18 20 22 23 23 23 22 23 23 23 24 25 25 24 23 23 24 24
8 8 7 5 -1 -1 -0 1 -11 -10 -4 14 16 16 16 2 1 -3 -5 -7 -6 -7 -1 -0 1 3 4 5 6 7 8 8 8 9 9 7 8 9 9 9 10 12 13 16 17 14 13 15 12 8 7 9 9 9 9 11 14 14 12 13 14 14 15 16 18 18 17 18 19 19 21 22 22 22 22 23 24 25 25 25 25 24 24 25 25 26
12 1 3 3 2 -1 -1 1 2 3 -1 8 9 12 6 -1 -1 -3 -5 -5 -6 -4 0 1 3 4 5 6 8 8 8 8 8 6 6 7 9 10 10 11 12 13 15 16 14 13 15 13 8 7 9 9 9 8 8 10 13 13 13 11 11 13 14 15 16 17 17 18 19 20 20 21 22 23 23 23 25 25 25 25 25 25 26 26 26 26
15 7 10 -0 2 -1 1 -0 -2 -6 -11 -2 8 14 7 1 -1 -2 -2 -4 -3 -5 2 4 4 6 6 7 8 8 9 7 5 6 7 8 10 10 11 12 11 12 14 13 12 14 12 10 8 7 8 8 8 6 7 9 13 12 8 7 9 12 14 16 16 17 18 19 20 20 20 22 23 23 23 24 25 25 25 26 26 26 27 27 27 27
9 8 5 5 -0 -4 -0 -2 -4 -7 -5 3 8 7 4 0 -1 -3 -4 -6 -2 2 5 5 5 7 8 8 8 9 7 6 5 5 7 8 9 9 10 9 9 11 11 12 13 10 9 8 7 7 7 7 7 7 10 11 7 3 4 7 9 12 13 14 15 17 18 19 20 20 22 23 23 22 23 24 26 26 26 26 27 27 28 27 28 28
5 0 4 3 -5 1 1 -1 -6 -6 -2 1 5 2 -0 -1 -3 -3 -12 -12 -1 4 5 7 8 9 9 9 9 9 8 5 5 6 8 8 8 9 8 8 9 9 9 13 12 10 9 6 5 4 4 6 6 7 9 5 4 6 7 8 10 12 12 13 15 17 19 20 21 22 22 22 22 22 23 25 26 26 26 27 27 28 27 28 28 27
3 2 0 2 0 4 6 -1 -2 -2 4 3 1 2 0 -1 -4 -7 -11 -3 3 5 7 8 9 10 9 9 10 8 8 9 9 9 9 9 9 8 8 9 9 8 11 12 9 10 5 5 4 3 3 6 5 3 5 4 5 6 8 9 10 10 11 12 15 18 20 21 22 22 21 22 23 24 25 26 26 26 27 27 27 28 28 27 28 28
4 -0 -0 -2 -0 0 -1 0 -4 -3 -0 3 2 2 0 -3 -6 -6 -0 4 5 6 8 9 10 9 10 10 10 9 9 10 11 9 9 8 7 7 7 8 8 9 12 11 7 6 4 3 2 2 5 5 2 2 3 3 5 7 8 9 9 9 10 12 16 19 20 21 21 22 22 22 24 25 26 26 26 26 26 27 28 28 28 27 27 25
6 3 -1 -1 3 2 -4 -6 -11 -18 -6 -1 3 0 -1 -3 -1 1 4 5 8 8 9 10 9 9 10 9 9 9 9 8 8 8 7 7 7 7 7 6 7 11 10 6 3 2 4 2 1 3 5 4 2 3 3 3 5 6 8 8 8 9 11 15 18 19 19 20 22 23 24 24 25 26 26 25 26 26 26 27 27 28 28 27 24 21
4 3 -1 -0 2 -6 -3 -15 -13 -3 -9 2 1 -1 -2 1 4 5 6 6 9 10 10 10 10 9 10 9 9 8 8 7 7 7 7 7 7 8 7 8 11 11 7 4 3 2 3 1 2 5 4 -0 1 3 2 4 5 7 8 7 8 10 14 16 17 18 19 21 22 24 25 26 26 25 25 25 26 27 27 27 27 27 27 24 21 19
8 3 0 0 -2 -2 -6 -4 -5 -3 1 4 0 1 3 5 6 7 8 9 10 10 11 10 10 10 10 10 9 8 7 7 6 6 6 6 7 6 7 10 11 9 5 3 2 2 2 2 2 2 -0 -0 2 1 2 3 5 7 7 7 8 12 15 16 16 17 18 20 22 23 24 25 25 25 25 26 27 27 26 26 27 26 26 21 20 18
10 12 9 8 5 7 6 4 6 6 1 0 3 5 5 6 7 9 10 10 11 12 12 11 11 11 11 10 8 8 7 6 5 6 7 7 7 7 8 9 7 5 2 1 2 1 3 2 1 -0 1 1 1 1 3 3 3 6 6 8 10 13 15 16 15 16 18 20 20 21 23 24 25 25 26 27 27 27 26 26 27 26 23 20 18 17
6 12 10 4 7 -1 -8 -2 -5 -3 1 3 4 5 7 8 9 11 11 12 12 12 12 12 11 11 10 10 9 7 6 5 5 5 5 6 7 8 9 8 5 3 3 2 1 3 2 2 1 2 2 2 1 1 2 3 4 5 7 9 11 13 15 15 15 15 16 18 19 21 22 23 24 25 26 26 26 26 26 27 27 24 21 19 18 16
2 14 9 8 5 0 -2 -2 0 2 4 5 6 6 7 8 10 11 12 12 12 12 12 11 11 10 10 9 8 7 6 5 5 5 5 6 8 8 8 6 4 3 2 1 0 2 1 0 1 2 2 1 1 1 2 2 3 5 7 9 11 14 15 13 14 14 15 17 19 19 21 23 25 25 26 26 26 26 26 27 27 22 20 19 18 17
3 7 -3 0 3 3 3 -0 0 6 5 5 7 8 9 10 11 12 12 12 12 11 11 11 10 10 9 9 8 6 5 5 5 6 7 8 7 6 7 6 4 2 1 1 2 2 0 2 3 1 1 2 1 1 2 4 4 6 7 8 11 14 13 12 13 13 15 16 17 18 20 22 24 25 26 26 26 26 27 27 25 21 20 20 20 19
5 2 4 5 3 -0 -1 -0 6 5 4 6 7 9 10 11 12 12 12 12 11 11 11 10 9 9 9 8 7 6 4 4 4 6 7 6 6 6 4 2 2 2 3 2 1 1 2 3 2 1 2 1 1 2 3 4 5 6 7 9 12 13 12 11 12 13 14 15 16 17 20 21 23 24 25 25 26 26 27 25 25 23 21 20 22 22
5 4 7 3 2 3 5 7 8 8 8 8 9 11 12 12 12 12 11 11 11 11 10 9 8 8 7 6 6 5 4 4 5 6 6 6 4 3 1 0 0 1 2 1 2 2 2 1 1 3 2 2 2 3 4 5 6 6 8 9 12 12 12 12 11 12 13 14 14 17 19 20 21 23 24 25 26 26 26 27 23 23 22 21 22 22